Location: Wald
(31.7579°N, 86.6655°W)
Time: 11:17:34
(UTC+00:00)

CZ-2D R/B - Pass Details

Date: 14 July 2020
Orbit: 792 x 844 km, 98.7° (Epoch: 09 August)

Event Time Altitude Azimuth Distance (km) Brightness Sun altitude
Rises 07:27:54 0° 10° (N) 3,353 6.3 -32.0°
Reaches altitude 10° 07:30:15 10° 8° (N) 2,425 5.4 -31.8°
Enters shadow 07:34:24 53° 349° (N) 1,007 2.7 -31.4°
